Weather History for KSLE - February, 2013

Change the Weather History Date:

Tuesday, February 19, 2013

  Actual Average Record
Temperature  
Mean Temperature 44 °F 43 °F  
Max Temperature 54 °F 52 °F 67 °F (1995)
Min Temperature 33 °F 35 °F 18 °F (2006)
Degree Days  
Heating Degree Days 21 22  
Month to date heating degree days 399 425  
Since 1 July heating degree days 2866 3052  
Cooling Degree Days 0 0  
Month to date cooling degree days 0 0  
Year to date cooling degree days 0 0  
Moisture  
Dew Point 37 °F    
Average Humidity 77    
Maximum Humidity 100    
Minimum Humidity 54    
Precipitation  
Precipitation T in 0.16 in 1.50 in (1968)
Month to date precipitation 0.48 3.16  
Year to date precipitation 2.11 9.12  
Snow  
Snow 0.00 in - - ()
Month to date snowfall 0.0  
Snow Depth 0.00 in    
Sea Level Pressure  
Sea Level Pressure 29.79 in    
Wind  
Wind Speed 5 mph (WNW)    
Max Wind Speed 16 mph    
Max Gust Speed 21 mph    
Visibility 10 miles    
Events      
T = Trace of Precipitation, MM = Missing Value Source: NWS Daily Summary

Daily Weather History Graph

Daily Weather History Graph

Search for Another Location

Airport or City:

Trip Planner

Search our weather history database for the weather conditions in past years. The results will help you decide how hot, cold, wet, or windy it might be!

Date:

Astronomy

Feb. 19, 2013 Rise Set
Actual Time 7:05 AM PST 5:46 PM PST
Civil Twilight 6:36 AM PST 6:16 PM PST
Nautical Twilight 6:01 AM PST 6:50 PM PST
Astronomical Twilight 5:28 AM PST 7:24 PM PST
Moon 12:14 PM PST (2/19) 2:50 AM PST (2/19)
Length of Visible Light 11h 40m
Length of Day
10h 40m
Waxing Gibbous, 68% of the Moon is Illuminated
Feb 19
Waxing Gibbous
Feb 25
Full
Mar 4
Last Quarter
Mar 11
New
Mar 19
First Quarter

Hourly Weather History & Observations

Time (PST) Temp. Windchill Dew Point Humidity Pressure Visibility Wind Dir Wind Speed Gust Speed Precip Events Conditions
12:56 AM 39.9 °F 33.9 °F 37.9 °F 93% 29.72 in 10.0 mi SSE 9.2 mph - 0.00 in   Overcast
2:33 AM 39.2 °F 33.6 °F 37.4 °F 93% 29.69 in 10.0 mi SE 8.1 mph - 0.00 in   Overcast
2:49 AM 39.2 °F 34.2 °F 37.4 °F 93% 29.70 in 10.0 mi SSE 6.9 mph - 0.00 in   Overcast
2:56 AM 39.9 °F 35.8 °F 37.9 °F 93% 29.70 in 10.0 mi SSE 5.8 mph - 0.00 in   Overcast
3:18 AM 39.2 °F 33.6 °F 37.4 °F 93% 29.69 in 10.0 mi SE 8.1 mph - N/A   Overcast
3:56 AM 37.0 °F 33.3 °F 36.0 °F 96% 29.68 in 10.0 mi ESE 4.6 mph - N/A   Partly Cloudy
4:56 AM 35.1 °F 32.2 °F 34.0 °F 96% 29.68 in 10.0 mi WNW 3.5 mph - N/A   Partly Cloudy
5:56 AM 34.0 °F - 34.0 °F 100% 29.69 in 10.0 mi Calm Calm - N/A   Mostly Cloudy
6:56 AM 37.0 °F 32.4 °F 36.0 °F 96% 29.69 in 10.0 mi NW 5.8 mph - N/A   Overcast
7:56 AM 37.9 °F 34.4 °F 37.0 °F 97% 29.71 in 10.0 mi NW 4.6 mph - N/A   Overcast
8:56 AM 39.9 °F 36.7 °F 37.9 °F 93% 29.73 in 10.0 mi North 4.6 mph - N/A   Overcast
9:56 AM 42.1 °F - 37.9 °F 85% 29.75 in 10.0 mi Calm Calm - N/A   Overcast
10:56 AM 44.1 °F 40.1 °F 39.0 °F 82% 29.76 in 10.0 mi NW 6.9 mph - N/A   Overcast
11:56 AM 48.0 °F - 39.0 °F 71% 29.77 in 10.0 mi NNW 8.1 mph - N/A   Mostly Cloudy
12:56 PM 50.0 °F - 39.0 °F 66% 29.78 in 10.0 mi NW 6.9 mph - N/A   Scattered Clouds
1:56 PM 52.0 °F - 36.0 °F 54% 29.79 in 10.0 mi Variable 6.9 mph - N/A   Mostly Cloudy
2:56 PM 52.0 °F - 36.0 °F 54% 29.80 in 10.0 mi West 10.4 mph - N/A   Mostly Cloudy
4:56 PM 48.0 °F - 37.0 °F 66% 29.83 in 10.0 mi WNW 6.9 mph - N/A   Mostly Cloudy
5:56 PM 45.0 °F 41.8 °F 36.0 °F 71% 29.85 in 10.0 mi West 5.8 mph - N/A   Mostly Cloudy
6:56 PM 45.0 °F 41.8 °F 37.9 °F 76% 29.90 in 10.0 mi East 5.8 mph - N/A   Overcast
7:56 PM 43.0 °F 41.3 °F 37.0 °F 80% 29.92 in 10.0 mi NW 3.5 mph - N/A   Partly Cloudy
8:56 PM 42.1 °F 40.2 °F 36.0 °F 79% 29.94 in 10.0 mi WSW 3.5 mph - N/A   Scattered Clouds
9:56 PM 39.0 °F - 35.1 °F 86% 29.97 in 10.0 mi Calm Calm - N/A   Mostly Cloudy
10:56 PM 36.0 °F - 34.0 °F 93% 29.99 in 10.0 mi Calm Calm - N/A   Clear
11:56 PM 35.1 °F - 32.0 °F 89% 30.01 in 10.0 mi Calm Calm - N/A   Scattered Clouds